Weather History for Middletown, PA

Change the Weather History Date:

Friday, June 6, 2014

  Actual Average Record
Temperature  
Mean Temperature 67 °F 69 °F  
Max Temperature 76 °F 78 °F 99 °F (1925)
Min Temperature 58 °F 59 °F 43 °F (1945)
Degree Days  
Heating Degree Days 0 1  
Month to date heating degree days 0 9  
Since 1 June heating degree days 0 9  
Since 1 July heating degree days 5725 5260  
Cooling Degree Days 2 5  
Month to date cooling degree days 31 26  
Year to date cooling degree days 91 91  
Since 1 June cooling degree days 31 26  
Growing Degree Days 16 (Base 50)    
Moisture  
Dew Point 50 °F    
Average Humidity 58    
Maximum Humidity 78    
Minimum Humidity 38    
Precipitation  
Precipitation 0.00 in 0.12 in 1.15 in (1919)
Month to date precipitation 0.61 0.69  
Year to date precipitation 22.25 16.22  
Sea Level Pressure  
Sea Level Pressure 29.93 in    
Wind  
Wind Speed 7 mph (NW)    
Max Wind Speed 15 mph    
Max Gust Speed 20 mph    
Visibility 10 miles    
Events      
T = Trace of Precipitation, MM = Missing Value Source: NWS Daily Summary

Daily Weather History Graph

Daily Weather History Graph

Search for Another Location

Airport:

Trip Planner

Search our weather history database for the weather conditions in past years. The results will help you decide how hot, cold, wet, or windy it might be!

Date:

Astronomy

Jun. 06, 2014 Rise Set
Actual Time 5:38 AM EDT 8:33 PM EDT
Civil Twilight 5:05 AM EDT 9:06 PM EDT
Nautical Twilight 4:24 AM EDT 9:47 PM EDT
Astronomical Twilight 3:36 AM EDT 10:35 PM EDT
Moon 1:50 PM EDT (6/6) 1:29 AM EDT (6/6)
Length of Visible Light 16h 00m
Length of Day
14h 55m
First Quarter, 58% of the Moon is Illuminated
Jun 6
First Quarter
Jun 13
Full
Jun 19
Last Quarter
Jun 27
New
Jul 5
First Quarter

Hourly Weather History & Observations

Time (EDT) Temp. Dew Point Humidity Pressure Visibility Wind Dir Wind Speed Gust Speed Precip Events Conditions
12:56 AM 66.0 °F 53.1 °F 63% 29.85 in 10.0 mi WNW 8.1 mph - N/A   Scattered Clouds
1:56 AM 64.0 °F 52.0 °F 65% 29.85 in 10.0 mi WNW 6.9 mph - N/A   Partly Cloudy
2:56 AM 62.1 °F 51.1 °F 67% 29.85 in 10.0 mi WNW 11.5 mph - N/A   Partly Cloudy
3:56 AM 61.0 °F 48.0 °F 62% 29.86 in 10.0 mi NW 11.5 mph - N/A   Partly Cloudy
4:56 AM 60.1 °F 46.9 °F 62% 29.88 in 10.0 mi West 8.1 mph - N/A   Partly Cloudy
5:56 AM 57.9 °F 46.9 °F 67% 29.90 in 10.0 mi NW 8.1 mph - N/A   Scattered Clouds
6:56 AM 61.0 °F 46.9 °F 60% 29.92 in 10.0 mi West 6.9 mph - N/A   Scattered Clouds
7:56 AM 63.0 °F 48.0 °F 58% 29.94 in 10.0 mi NNW 11.5 mph - N/A   Scattered Clouds
8:56 AM 64.9 °F 48.0 °F 54% 29.96 in 10.0 mi NNW 9.2 mph - N/A   Partly Cloudy
9:56 AM 64.9 °F 48.0 °F 54% 29.96 in 10.0 mi North 10.4 mph - N/A   Partly Cloudy
10:56 AM 66.9 °F 48.0 °F 51% 29.96 in 10.0 mi NNW 6.9 mph 17.3 mph N/A   Scattered Clouds
11:56 AM 68.0 °F 50.0 °F 52% 29.95 in 10.0 mi NW 10.4 mph - N/A   Mostly Cloudy
12:56 PM 70.0 °F 50.0 °F 49% 29.95 in 10.0 mi NNW 13.8 mph 19.6 mph N/A   Mostly Cloudy
1:56 PM 72.0 °F 51.1 °F 48% 29.94 in 10.0 mi WNW 8.1 mph - N/A   Scattered Clouds
2:56 PM 75.0 °F 51.1 °F 43% 29.92 in 10.0 mi NNW 8.1 mph - N/A   Mostly Cloudy
3:56 PM 75.0 °F 50.0 °F 41% 29.92 in 10.0 mi North 10.4 mph - N/A   Scattered Clouds
4:56 PM 75.9 °F 50.0 °F 40% 29.92 in 10.0 mi NNW 5.8 mph - N/A   Scattered Clouds
5:56 PM 75.0 °F 48.9 °F 40% 29.93 in 10.0 mi NNW 10.4 mph - N/A   Partly Cloudy
6:56 PM 75.0 °F 50.0 °F 41% 29.94 in 10.0 mi NW 9.2 mph - N/A   Scattered Clouds
7:56 PM 73.9 °F 50.0 °F 43% 29.94 in 10.0 mi NNW 5.8 mph - N/A   Partly Cloudy
8:56 PM 66.9 °F 55.9 °F 68% 29.95 in 10.0 mi Calm Calm - N/A   Partly Cloudy
9:56 PM 64.0 °F 55.9 °F 75% 29.97 in 10.0 mi Calm Calm - N/A   Clear
10:56 PM 64.0 °F 55.0 °F 73% 29.98 in 10.0 mi Calm Calm - N/A   Clear
11:56 PM 60.1 °F 54.0 °F 80% 29.99 in 10.0 mi Calm Calm - N/A   Clear